Regional Weather Roundup
Issued by NWS

Home | Current Version | Previous Version | Graphics & Text | Print | Product List | Glossary On
Versions: 1 2 3 4 5 6 7 8 9 10 11 12 13 14 15 16 17 18 19 20 21 22 23 24 25 26 27 28 29 30 31 32 33 34 35 36 37 38 39 40 41 42 43 44 45 46 47 48 49 50
949
ASUS43 KMKX 130859
RWRWI

WISCONSIN REGIONAL WEATHER ROUNDUP
NATIONAL WEATHER SERVICE MILWAUKEE/SULLIVAN WI
300 AM CST SAT FEB 13 2016

NOTE: "FAIR" INDICATES FEW OR NO CLOUDS BELOW 12,000 FEET WITH NO
SIGNIFICANT WEATHER AND/OR OBSTRUCTIONS TO VISIBILITY.

WIZ001-002-006>008-014>016-023>028-131000-
NORTHWEST WISCONSIN

CITY           SKY/WX    TMP DP  RH WIND       PRES   REMARKS
SUPERIOR ARPT  CLOUDY    -7 -18  57 NW6       30.64S WCI -20
ASHLAND        CLOUDY    -3  -8  79 NW9G16    30.57R HAZE    WCI -19
HAYWARD        CLOUDY    -9 -19  61 CALM      30.54R
SIREN          PTCLDY   -13 -21  69 W5        30.61R WCI -25
CUMBERLAND     CLOUDY    -8 -18  59 NW7       30.55S WCI -22
RICE LAKE      CLOUDY    -7 -18  57 NW3       30.59R
CHETEK         CLOUDY    -7 -17  62 NW5       30.57R WCI -18
LADYSMITH      CLOUDY    -7 -18  59 NW9       30.54R WCI -24
EAU CLAIRE     PTCLDY    -4 -18  51 NW6       30.59R WCI -16
MENOMONIE      PTCLDY    -3 -17  52 W7        30.61R WCI -17
NEW RICHMOND   PTCLDY    -6 -16  61 NW6       30.61S WCI -19
OSCEOLA        PTCLDY    -4 -15  59 NW6       30.66R WCI -16
$$

WIZ003>005-009-010-017-018-131000-
NORTH CENTRAL WISCONSIN

CITY           SKY/WX    TMP DP  RH WIND       PRES   REMARKS
MANITOWISH WTR LGT SNOW  -7 -12  78 W7        30.40R WCI -22
ARBOR VITAE    FLURRIES  -4  -9  77 NW8       30.40R WCI -19
WOODRUFF       FLURRIES  -4  -9  77 NW8       30.40R WCI -19
RHINELANDER    CLEAR     -9 -15  75 W10       30.40R WCI -27
EAGLE RIVER    FLURRIES  -8 -14  74 W6        30.36R WCI -21
LAND O LAKES   LGT SNOW  -2  -7  81 NW6       30.35S WCI -14
PHILLIPS       CLOUDY   -11 -16  79 CALM      30.46R
TOMAHAWK       CLOUDY    -8 -14  74 W8        30.44R WCI -24
MEDFORD        CLOUDY    -8 -18  63 NW9       30.46R WCI -25
MERRILL        CLOUDY    -6 -15  66 NW6       30.47R WCI -19
$$

WIZ029-030-035-036-043>047-131000-
CENTRAL WISCONSIN

CITY           SKY/WX    TMP DP  RH WIND       PRES   REMARKS
WAUSAU         CLOUDY    -4 -14  62 NW12      30.47R WCI -22
MOSINEE        CLOUDY    -6 -15  65 NW10      30.48R WCI -23
MARSHFIELD     CLOUDY    -7 -19  56 NW14      30.48S WCI -28
STEVENS POINT  CLEAR     -6 -18  56 NW6       30.50R WCI -18
WAUPACA        PTCLDY     0 -15  49 W8        30.51R WCI -14
WAUTOMA        NOT AVBL
WISC RAPIDS    CLOUDY    -4 -18  51 NW9       30.53R WCI -20
CAMP DOUGLAS   PTCLDY    -8 -17  64 W8        30.56R WCI -24
$$

WIZ011>013-019>022-031-037>040-048>050-131000-
NORTHEAST WISCONSIN

CITY           SKY/WX    TMP DP  RH WIND       PRES   REMARKS
ANTIGO         CLEAR     -8 -15  72 W12       30.40R WCI -27
SHAWANO        CLEAR     -1 -12  58 W8        30.48R WCI -15
OCONTO         CLEAR     -3 -12  66 W8        30.47R WCI -18
STURGEON BAY   CLEAR     -2 -11  65 W12G17    30.45R WCI -20
GREEN BAY      PTCLDY    -3 -13  62 W12       30.49R WCI -21
MANITOWOC      NOT AVBL
APPLETON       CLEAR     -2 -15  55 W14       30.46R WCI -21
CLINTONVILLE   CLEAR      0 -15  50 W10       30.49R WCI -17
OSHKOSH        CLEAR     -2 -15  54 W9        30.50R WCI -18
$$

WIZ032>034-041-042-053>061-131000-
SOUTHWEST WISCONSIN

CITY           SKY/WX    TMP DP  RH WIND       PRES   REMARKS
LA CROSSE      PTCLDY    -3 -15  56 N5        30.62R WCI -13
SPARTA         PTCLDY    -2 -14  56 NW5       30.59R WCI -12
VIROQUA        PTCLDY    -4 -16  57 NW7       30.53R WCI -18
BOSCOBEL       MOCLDY    -5 -13  68 CALM      30.61R
PRAIRIE DU CHI CLOUDY     1 -12  55 NW7       30.62R WCI -12
PLATTEVILLE    CLOUDY     0  -9  64 NW7       30.55S WCI -13
$$

WIZ056-057-062-063-064-067-068-131000-
SOUTH CENTRAL WISCONSIN

CITY           SKY/WX    TMP DP  RH WIND       PRES   REMARKS
REEDSBURG      PTCLDY    -3 -15  56 W6        30.56R WCI -15
BARABOO/DELLS  PTCLDY    -2 -17  50 NW6       30.54R WCI -14
LONE ROCK      NOT AVBL
MINERAL POINT  PTCLDY     0 -13  55 W6        30.53R WCI -12
MADISON        CLEAR      0 -15  49 NW9       30.54R WCI -15
MIDDLETON      CLEAR      2 -13  49 NW6       30.54R WCI  -9
WATERTOWN      CLEAR      1 -12  54 NW10      30.51S WCI -15
MONROE         CLEAR      3  -9  55 NW7       30.52R WCI  -9
JANESVILLE     CLEAR      5  -9  51 N12       30.54R WCI -11
$$

WIZ051-052-058>065-066-070>072-131000-
SOUTHEAST WISCONSIN

CITY           SKY/WX    TMP DP  RH WIND       PRES   REMARKS
MILWAUKEE      CLEAR      2 -13  49 NW14G24   30.50R WCI -16
WAUKESHA       CLEAR      0 -13  55 NW16      30.50R WCI -21
MILWAUKEE/TIMM PTCLDY     1 -13  51 NW13      30.51R WCI -16
RACINE         CLEAR      3 -12  49 NW9G20    30.52R WCI -12
BURLINGTON     CLEAR      1 -13  52 NW12      30.51R WCI -16
KENOSHA        CLEAR      3 -11  52 NW13      30.51R WCI -14
FOND DU LAC    PTCLDY     0 -14  51 NW14      30.50R WCI -19
SHEBOYGAN      CLEAR      0 -13  54 NW15      30.48R WCI -19
WEST BEND      CLEAR      1 -15  46 NW12G20   30.48R WCI -15
JUNEAU         CLEAR     -1 -14  53 W7        30.52R WCI -14
$$

LSZ147-162-131000-
LAKE SUPERIOR

STATION/POSITION TIME  TEMP    WIND        PRES    WAVE
                       AIR SEA DIR/SP/G            HT/PER
                 (UTC) (F)     (DEG/KT/KT) (MB)    (FT/S)
DEVILS ISLAND    0800   -1     320/ 18/ 23 1037.1R
SAXON HARBOR     0800    2                 1033.9R
$$

LMZ867-665-643>646-131000-
LAKE MICHIGAN

STATION/POSITION TIME  TEMP    WIND        PRES    WAVE
                       AIR SEA DIR/SP/G            HT/PER
                 (UTC) (F)     (DEG/KT/KT) (MB)    (FT/S)
CHAMBERS ISLAND  0800    0     270/  6/ 13 1030.1R
SISTER BAY       0649    2     320/ 19/ 23   N/A
ALGOMA LAKESHORE 0811          310/  9/ 16   N/A
KEWAUNEE LAKESHO 0800   -1     300/  7/ 12 1029.9R
SHEBOYGAN LAKESH 0800    1     290/ 15/ 19 1033.7R
PORT WASHINGTON  0800    2     300/  7/ 14 1033.2
MILWAUKEE LAKESH 0810    4     310/ 12/ 16   N/A
KENOSHA   LAKESH 0800    4     310/ 13/ 17 1032.2R
$$

TC  - TEMPERATURE IN CELSIUS
VSB - VISIBILITY IN STATUTE MILES
WCI - WIND CHILL INDEX
HX  - HEAT INDEX





USA.gov is the U.S. government's official web portal to all federal, state and local government web resources and services.